Regional Weather Roundup
Issued by NWS

Home | Current Version | Previous Version | Graphics & Text | Print | Product List | Glossary On
Versions: 1 2 3 4 5 6 7 8 9 10 11 12 13 14 15 16 17 18 19 20 21 22 23 24 25 26 27 28 29 30 31 32 33 34 35 36 37 38 39 40 41 42 43 44 45 46 47 48 49 50
000
ASUS43 KDTX 240910
RWRMI
MICHIGAN HOURLY REGIONAL WEATHER ROUNDUP
NATIONAL WEATHER SERVICE DETROIT/PONTIAC MI
400 AM EST FRI FEB 24 2017

NOTE: "FAIR" INDICATES FEW OR NO CLOUDS BELOW 12,000 FEET WITH NO
SIGNIFICANT WEATHER AND/OR OBSTRUCTION TO VISIBILITY.

MIZ047>049-052>055-059>063-066>070-074>076-081>083-241000-
SOUTHEAST LOWER MICHIGAN

CITY           SKY/WX    TMP DP  RH WIND       PRES   REMARKS
ADRIAN         LGT RAIN  41  41 100 E10       29.70F
ALMA           CLOUDY    33  32  94 NE20      29.78R WCI  22
ANN ARBOR      CLOUDY    40  38  93 NE8       29.71F WCI  34
BAD AXE        FLURRIES  33  31  94 NE9       29.81F WCI  25
CARO           MIX PCPN  33  32  94 NE8       29.77F WCI  27
DETROIT CITY   CLOUDY    39  38  96 NE10      29.74F WCI  32
DETROIT        LGT RAIN  41  39  93 CALM      29.74F
FLINT          CLOUDY    37  35  92 E13       29.75F WCI  29
GROSSE ILE     LGT RAIN  39  38  94 NE9       29.73S WCI  33
HILLSDALE      CLOUDY    39  37  93 E9        29.68S WCI  33
HOWELL         CLOUDY    38  35  90 E8        29.73S WCI  32

CITY           SKY/WX    TMP DP  RH WIND       PRES   REMARKS
JACKSON        CLOUDY    40  37  89 E9        29.72R WCI  34
LAMBERTVILLE   LGT RAIN  42  39  91 E7        29.72F
LANSING        CLOUDY    37  34  89 E12       29.73F WCI  29
LAPEER         LGT RAIN  36  35  96 E7        29.75F WCI  30
MASON          CLOUDY    38  37  95 E8        29.72F WCI  32
MONROE         RAIN      41  40  98 NE6       29.75R
MT. CLEMENS    LGT RAIN  39  39 100 NE12      29.72F WCI  32
PONTIAC        CLOUDY    37  34  89 NE8       29.73F WCI  31
PORT HOPE        N/A     35  33  92 N14       29.81F WCI  26
PORT HURON     CLOUDY    36  36 100 NE9       29.76F WCI  29
TRI CITIES     FRZ RAIN  33  31  92 NE17      29.76F WCI  22
MIDLAND        MIX PCPN  33  30  89 N8        29.79F WCI  26
TROY           CLOUDY    39  36  91 NE9       29.76F WCI  32
SAGINAW HB     FLURRIES  34  30  86 NE23      29.75F WCI  22
$$
MIZ043>046-050>051-056>058-064>065-071>073-077>080-241000-
SOUTHWEST LOWER MICHIGAN

CITY           SKY/WX    TMP DP  RH WIND       PRES   REMARKS
BATTLE CREEK   RAIN      42  40  92 E14       29.67F
BENTON HARBOR  CLOUDY    49  46  90 E8        29.56F FOG
BIG RAPIDS     LGT SNOW  33  32  96 E8        29.74F WCI  26
COLDWATER      LGT RAIN  44  42  93 E9        29.66F
FREMONT        LGT RAIN  35  34  96 E17G23    29.69F WCI  25
HOLLAND        LGT RAIN  41  37  86 E17G28    29.63F
GRAND RAPIDS   LGT RAIN  37  36  96 NE20G25   29.69F WCI  27
IONIA          CLOUDY    35  33  92 NE21G28   29.70F WCI  24
KALAMAZOO      LGT RAIN  45  40  82 E9G20     29.64F
LUDINGTON      CLOUDY    32  32  99 NE9       29.71F WCI  24
MARSHALL       CLOUDY    41  39  95 E10G20    29.68S
MOUNT PLEASANT LGT RAIN  34  32  94 NE8G22    29.78F WCI  27
MUSKEGON       HVY RAIN  38  35  89 MISG      29.68F FOG
SOUTH HAVEN    LGT RAIN  46  45  98 E10       29.58F
$$
MIZ016>042-241000-
NORTHERN LOWER MICHIGAN

CITY           SKY/WX    TMP DP  RH WIND       PRES   REMARKS
ALPENA         CLOUDY    32  25  75 N8        29.85F WCI  25
BEAVER ISLAND  CLOUDY    31  26  80 NE6       29.87F WCI  25
BELLAIRE       SNOW      29  28  93 NE3       29.88R VSB 1/2
CADILLAC       LGT SNOW  29  27  94 NE8       29.76F WCI  21
CHARLEVOIX     CLOUDY    32  23  70 NE8       29.90R WCI  25
FRANKFORT      LGT SNOW  30  29  96 NE12G18   29.78F WCI  21
GAYLORD        LGT SNOW  28  23  81 NE8       29.82R VSB 3/4 WCI  20
GRAYLING       SNOW      28  27  94 NE12      29.82F VSB 1/2 WCI  18
HARBOR SPRINGS CLOUDY    31  23  71 NE9       29.86R WCI  23
HOUGHTON LAKE  LGT SNOW  29  26  89 NE7       29.82R FOG     WCI  22
MANISTEE       FLURRIES  30  28  92 NE18G25   29.74F WCI  18
OSCODA         LGT SNOW  33  25  71 N7        29.84S WCI  27
PELLSTON       CLOUDY    31  22  69 NE10      29.86F WCI  22
ROGERS CITY    LGT SNOW  32  26  77 N7        29.86F WCI  26
TRAVERSE CITY  SNOW      30  28  92 NE10      29.83F VSB 1/2 WCI  21
$$
MIZ007>008-015-241000-
EASTERN UPPER MICHIGAN

CITY           SKY/WX    TMP DP  RH WIND       PRES   REMARKS
KINROSS        CLOUDY    28  21  75 NE10      29.88F WCI  19
MACKINAC ISLAN CLOUDY    30  22  72 NE12G20   29.87S WCI  20
NEWBERRY       CLOUDY    28  23  79 NE8       29.87F WCI  20
S. S. MARIE    PTCLDY    30  19  63 NE7       29.88F WCI  23
MUNISING         N/A     31  24  75 NE22      29.89F WCI  18
$$
MIZ004>006-011>014-085-241000-
CENTRAL UPPER MICHIGAN

CITY           SKY/WX    TMP DP  RH WIND       PRES   REMARKS
MANISTIQUE     CLOUDY    31  24  77 NE7       29.88S WCI  24
ESCANABA       FLURRIES  31  25  78 NE3       29.90R
MENOMINEE      FLURRIES  32  25  75 NE17G23   29.84F WCI  21
SAWYER-GWINN   CLOUDY    28  23  81 N17       29.88R WCI  15
$$
MIZ001>003-009>011-084-241000-
WESTERN UPPER MICHIGAN

CITY           SKY/WX    TMP DP  RH WIND       PRES   REMARKS
IRON MOUNTAIN  LGT SNOW  29  21  72 NE8       29.85F WCI  21
HOUGHTON       CLOUDY    22  14  71 NE12G21   29.95S WCI  10
COPPER HARBOR    N/A     25  17  72 E17       29.99R WCI  12
IRONWOOD       CLOUDY    26  22  84 NE14      29.88F WCI  14
$$

ABBREVIATIONS USED IN REMARKS
   TC - TEMPERATURE IN CELSIUS
  WCI - WIND CHILL INDEX
   HX - HEAT INDEX
  VSB - VISIBILITY





USA.gov is the U.S. government's official web portal to all federal, state and local government web resources and services.